Location: Ermatingen
(47.6706°N, 9.0857°E)
Time: 06:29:55
(UTC+00:00)

ATLAS 2AS CENTAUR R/B - Pass Details

Date: 18 September 2020
Orbit: 939 x 1273 km, 63.7° (Epoch: 26 October)

Event Time Altitude Azimuth Distance (km) Brightness Sun altitude
Rises 19:12:43 0° 174° (S) 4,178 5.5 -17.8°
Reaches altitude 10° 19:15:57 10° 163° (SSE) 3,239 4.8 -18.3°
Enters shadow 19:16:57 13° 158° (SSE) 2,983 4.6 -18.4°
Exits shadow 19:24:45 23° 82° (E) 2,414 4.1 -19.6°
Drops below altitude 10° 19:28:36 10° 56° (ENE) 3,254 4.9 -20.2°
Sets 19:31:50 0° 46° (NE) 4,202 5.6 -20.7°
